Mammoth, CA

4:42 PM PDT on June 20, 2018 (GMT -0700)
Mammoth Yosemite

Weather History for KMMH - November, 2017

Change the Weather History Date:

Friday, November 10, 2017

  Actual Average Record
Temperature  
Mean Temperature 38 °F -  
Max Temperature 59 °F 45 °F 73 °F (2014)
Min Temperature 16 °F 31 °F 10 °F (2012)
Degree Days  
Heating Degree Days 28    
Moisture  
Dew Point -3 °F    
Average Humidity 24    
Maximum Humidity 70    
Minimum Humidity 4    
Precipitation  
Precipitation 0.00 in - - ()
Sea Level Pressure  
Sea Level Pressure 30.03 in    
Wind  
Wind Speed 10 mph (South)    
Max Wind Speed 23 mph    
Max Gust Speed 37 mph    
Visibility 10 miles    
Events      
Averages and records for this station are not official NWS values.
T = Trace of Precipitation, MM = Missing Value Source: NWS Daily Summary

Daily Weather History Graph

Daily Weather History Graph

Search for Another Location

Airport or City:

Astronomy

Nov. 10, 2017 Rise Set
Actual Time 6:30 AM PST 4:47 PM PST
Civil Twilight 6:02 AM PST 5:15 PM PST
Nautical Twilight 5:31 AM PST 5:46 PM PST
Astronomical Twilight 5:00 AM PST 6:17 PM PST
Moon 11:38 PM PST (11/10) 12:45 PM PST (11/10)
Length of Visible Light 11h 12m
Length of Day
10h 17m
Waning Gibbous, 50% of the Moon is Illuminated
Nov 10
Waning Gibbous
Nov 10
Last Quarter
Nov 18
New
Nov 26
First Quarter
Dec 3
Full

Hourly Weather History & Observations

Time (PST) Temp. Windchill Dew Point Humidity Pressure Visibility Wind Dir Wind Speed Gust Speed Precip Events Conditions
12:15 AM 38.3 °F 33.2 °F 17.8 °F 44% 30.05 in 10.0 mi East 6.9 mph - N/A   Clear
12:35 AM 39.0 °F 34.8 °F 10.2 °F 31% 30.04 in 10.0 mi East 5.8 mph - N/A   Clear
12:55 AM 37.9 °F 34.4 °F 15.8 °F 41% 30.04 in 10.0 mi SE 4.6 mph - N/A   Clear
1:15 AM 38.3 °F 32.5 °F 15.8 °F 40% 30.03 in 10.0 mi SSE 8.1 mph - N/A   Clear
1:35 AM 36.9 °F 30.1 °F 15.1 °F 41% 30.04 in 10.0 mi ESE 9.2 mph - N/A   Clear
1:55 AM 39.2 °F 34.2 °F 11.7 °F 32% 30.02 in 10.0 mi SE 6.9 mph 17.3 mph N/A   Clear
2:15 AM 47.1 °F - -13.4 °F 8% 30.02 in 10.0 mi South 8.1 mph 18.4 mph N/A   Clear
2:35 AM 49.1 °F - -19.1 °F 5% 30.01 in 10.0 mi SSW 12.7 mph 21.9 mph N/A   Clear
2:55 AM 52.2 °F - -28.8 °F 4% 30.00 in 10.0 mi SSW 18.4 mph 26.5 mph N/A   Clear
3:15 AM 53.2 °F - -31.9 °F 4% 30.00 in 10.0 mi SW 19.6 mph 36.8 mph N/A   Clear
3:35 AM 53.4 °F - -32.4 °F 4% 30.00 in 10.0 mi SSW 18.4 mph 28.8 mph N/A   Clear
3:55 AM 53.4 °F - -33.5 °F 4% 30.00 in 10.0 mi SW 23.0 mph 32.2 mph N/A   Clear
4:15 AM 53.1 °F - -33.9 °F 4% 30.00 in 10.0 mi SSW 20.7 mph 32.2 mph N/A   Clear
4:35 AM 52.9 °F - -33.7 °F 4% 30.00 in 10.0 mi SW 17.3 mph 34.5 mph N/A   Clear
4:55 AM 53.2 °F - -35.1 °F 4% 30.00 in 10.0 mi SW 18.4 mph 25.3 mph N/A   Clear
5:15 AM 53.6 °F - -34.8 °F 4% 30.00 in 10.0 mi SSW 19.6 mph 29.9 mph N/A   Clear
5:35 AM 53.4 °F - -35.1 °F 4% 29.99 in 10.0 mi SSW 20.7 mph 28.8 mph N/A   Clear
5:55 AM 53.2 °F - -35.5 °F 4% 29.99 in 10.0 mi South 15.0 mph 29.9 mph N/A   Clear
6:15 AM 52.7 °F - -35.0 °F 4% 29.99 in 10.0 mi SSW 13.8 mph 23.0 mph N/A   Clear
6:35 AM 53.1 °F - -33.5 °F 4% 29.99 in 10.0 mi SSW 16.1 mph 26.5 mph N/A   Clear
6:55 AM 48.6 °F - -22.0 °F 5% 30.00 in 10.0 mi South 13.8 mph 21.9 mph N/A   Clear
7:15 AM 52.7 °F - -19.8 °F 5% 30.01 in 10.0 mi SSE 15.0 mph 29.9 mph N/A   Clear
7:35 AM 51.8 °F - -25.6 °F 4% 30.01 in 10.0 mi South 17.3 mph 29.9 mph N/A   Clear
7:55 AM 47.1 °F - -0.2 °F 14% 30.01 in 10.0 mi ENE 10.4 mph 17.3 mph N/A   Clear
8:15 AM 48.2 °F - -0.4 °F 13% 30.02 in 10.0 mi East 5.8 mph - N/A   Clear
8:35 AM 50.2 °F - -4.9 °F 10% 30.02 in 10.0 mi ESE 8.1 mph - N/A   Clear
8:55 AM 48.9 °F - 2.7 °F 15% 30.03 in 10.0 mi SE 9.2 mph - N/A   Clear
9:15 AM 48.4 °F - -0.9 °F 13% 30.03 in 10.0 mi ESE 9.2 mph - N/A   Clear
9:35 AM 52.2 °F - 1.4 °F 13% 30.02 in 10.0 mi East 11.5 mph - N/A   Clear
9:55 AM 54.3 °F - 5.4 °F 14% 30.03 in 10.0 mi East 8.1 mph - N/A   Clear
10:15 AM 55.0 °F - 6.3 °F 14% 30.03 in 10.0 mi SE 6.9 mph - N/A   Clear
10:35 AM 56.7 °F - 2.3 °F 11% 30.02 in 10.0 mi SSE 11.5 mph - N/A   Clear
10:55 AM 57.7 °F - -2.2 °F 9% 30.02 in 10.0 mi WSW 6.9 mph - N/A   Scattered Clouds
11:15 AM 59.9 °F - -10.7 °F 5% 30.02 in 10.0 mi SSW 20.7 mph 31.1 mph N/A   Scattered Clouds
11:35 AM 58.3 °F - -14.4 °F 5% 30.02 in 10.0 mi SW 19.6 mph 32.2 mph N/A   Clear
11:55 AM 58.3 °F - -12.6 °F 5% 30.00 in 10.0 mi SSW 10.4 mph 28.8 mph N/A   Scattered Clouds
12:15 PM 58.6 °F - -15.5 °F 4% 30.00 in 10.0 mi SW 16.1 mph 24.2 mph N/A   Clear
12:35 PM 58.3 °F - -14.6 °F 5% 29.99 in 10.0 mi SW 12.7 mph 27.6 mph N/A   Clear
12:55 PM 57.6 °F - -10.3 °F 6% 30.00 in 10.0 mi SSW 10.4 mph 24.2 mph N/A   Clear
1:15 PM 58.3 °F - -12.3 °F 5% 29.99 in 10.0 mi SSW 12.7 mph 19.6 mph N/A   Clear
1:35 PM 58.1 °F - -13.4 °F 5% 29.99 in 10.0 mi SSW 15.0 mph 20.7 mph N/A   Clear
1:55 PM 57.6 °F - -10.7 °F 6% 29.99 in 10.0 mi SW 12.7 mph 33.4 mph N/A   Clear
2:15 PM 57.9 °F - -10.7 °F 6% 29.98 in 10.0 mi South 15.0 mph 27.6 mph N/A   Clear
2:35 PM 57.2 °F - -9.6 °F 6% 29.98 in 10.0 mi SSW 23.0 mph 34.5 mph N/A   Clear
2:55 PM 56.5 °F - -6.5 °F 7% 29.99 in 10.0 mi SSW 20.7 mph 33.4 mph N/A   Clear
3:15 PM 55.8 °F - -6.7 °F 8% 29.99 in 10.0 mi SSW 15.0 mph 27.6 mph N/A   Clear
3:35 PM 54.5 °F - -4.7 °F 9% 30.00 in 10.0 mi SSW 6.9 mph 24.2 mph N/A   Clear
3:55 PM 53.1 °F - -5.4 °F 9% 30.00 in 10.0 mi South 15.0 mph 29.9 mph N/A   Clear
4:15 PM 51.6 °F - -4.0 °F 10% 30.01 in 10.0 mi SW 10.4 mph 20.7 mph N/A   Clear
4:35 PM 50.7 °F - -5.4 °F 10% 30.01 in 10.0 mi WSW 5.8 mph 16.1 mph N/A   Clear
4:55 PM 45.7 °F 43.4 °F 14.4 °F 28% 30.02 in 10.0 mi SSE 4.6 mph - N/A   Clear
5:15 PM 41.9 °F 39.0 °F 19.8 °F 41% 30.02 in 10.0 mi East 4.6 mph 16.1 mph N/A   Clear
5:35 PM 41.9 °F - 19.8 °F 41% 30.03 in 10.0 mi Calm Calm - N/A   Clear
5:55 PM 40.3 °F 34.4 °F 20.1 °F 45% 30.04 in 10.0 mi North 9.2 mph - N/A   Clear
6:15 PM 38.8 °F 35.4 °F 21.6 °F 50% 30.04 in 10.0 mi NE 4.6 mph - N/A   Clear
6:35 PM 39.7 °F 33.7 °F 16.5 °F 39% 30.05 in 10.0 mi East 9.2 mph - N/A   Clear
6:55 PM 38.5 °F 31.6 °F 20.5 °F 48% 30.05 in 10.0 mi ESE 10.4 mph - N/A   Clear
7:15 PM 37.6 °F 34.0 °F 19.9 °F 49% 30.05 in 10.0 mi NNW 4.6 mph - N/A   Clear
7:35 PM 35.8 °F 30.1 °F 19.9 °F 53% 30.07 in 10.0 mi SE 6.9 mph - N/A   Clear
7:55 PM 32.9 °F - 17.6 °F 53% 30.07 in 10.0 mi Calm Calm - N/A   Clear
8:15 PM 29.3 °F - 16.2 °F 58% 30.07 in 10.0 mi Calm Calm - N/A   Clear
8:35 PM 27.5 °F 23.6 °F 14.7 °F 59% 30.07 in 10.0 mi ENE 3.5 mph - N/A   Clear
8:55 PM 28.6 °F - 13.8 °F 54% 30.07 in 10.0 mi Calm Calm - N/A   Clear
9:15 PM 32.4 °F 26.9 °F 22.1 °F 66% 30.09 in 10.0 mi SE 5.8 mph - N/A   Clear
9:35 PM 31.1 °F - 19.8 °F 63% 30.09 in 10.0 mi Calm Calm - N/A   Clear
9:55 PM 27.7 °F 21.3 °F 15.8 °F 61% 30.09 in 10.0 mi SSE 5.8 mph - N/A   Clear
10:15 PM 22.6 °F - 11.7 °F 63% 30.09 in 10.0 mi Calm Calm - N/A   Clear
10:35 PM 17.4 °F - 8.6 °F 68% 30.10 in 10.0 mi Calm Calm - N/A   Clear
10:55 PM 19.2 °F - 8.8 °F 64% 30.10 in 10.0 mi Calm Calm - N/A   Clear
11:15 PM 16.7 °F - 8.6 °F 70% 30.10 in 10.0 mi Calm Calm - N/A   Clear
11:35 PM 20.1 °F - 10.0 °F 65% 30.10 in 10.0 mi Calm Calm - N/A   Clear
11:55 PM 18.7 °F - 8.6 °F 65% 30.10 in 10.0 mi Calm Calm - N/A   Clear